{"data":{"norad_id":52267,"epoch":"2026-05-25T04:54:27.883296Z","epoch_age_seconds":53800,"freshness":"FRESH","line1":"1 52267U 22041G   26145.20448939  .00000741  00000+0  64652-4 0  9996","line2":"2 52267  53.2123 125.6377 0001016  68.2643 291.8458 15.08847043225914","mean_motion":15.08847043,"eccentricity":0.0001016,"inclination_deg":53.2123,"raan_deg":125.6377,"arg_perigee_deg":68.2643,"mean_anomaly_deg":291.8458,"bstar":6.4652e-5,"rev_number":22591,"period_min":95.437109194109,"perigee_km":539.01900695412,"apogee_km":540.42471587476,"semimajor_km":6917.8588614144,"source":"CELESTRAK","updated_at":"2026-05-25T13:38:17.081017Z"}}